Content
SEND FEEDBACK

Daily
Averages
Monthly
Summary
India

AHMEDABAD, INDIA


Home > Asia > India
Elevation: 180 feet     Latitude: 23 04N     Longitude: 072 38E

WEATHER
 
SELECT A DAY
Number of Records: 210,312;   Date Range: 7/1/96 - 7/27/14
 
SHARE

PRINT THIS DATA

[ ← Previous Day ]
WEATHER ALMANAC - FEBRUARY 19, 2013
[ Next Day → ]
[ °C ]   °F
Weather ElementAverageHighLow
Temperature72.3 °F86 °F (1:40 pm)59 °F (4:40 am)
Dewpoint49.9 °F54 °F (8:30 pm)46.4 °F (5:40 pm)
Humidity46.2 %72 % (12:40 am)19 % (5:30 pm)
Barometer29.90 in29.98 in (10:10 am)29.83 in (3:10 pm)
Wind Speed4.8 mph9.2 mph (3:40 pm)
Weather ElementAverage
Visibility2.7 mi
Wind DirectionENE (58.1 °)

Weather ElementTotal
Precipitation---
Cooling Degree Days7.5 (Base 65)
Growing Degree Days22.5 (Base 50)
Averaged from 49 records on February 19, 2013
WEATHER CONDITIONS BREAKOUT
WIND DIRECTION BREAKOUT
WEATHER BY HOUR - FEBRUARY 19, 2013
[ °C ]   °F
Local TimeTemperatureDewpointHumidityBarometerVisibilityWind DirectionWind SpeedGust SpeedPrecipitationEventsConditions
12:40 AM60.8 °F51.8 °F72 %29.92 in2.5 miNNE (20°)3.5 mphHaze
1:10 AM60.8 °F51.8 °F72 %29.92 in2.5 miNNE (20°)3.5 mphHaze
1:40 AM60.8 °F51.8 °F72 %29.89 in2.5 miNE (50°)3.5 mphHaze
2:10 AM60.8 °F50.0 °F68 %29.86 in2.5 miNE (50°)3.5 mphHaze
2:30 AM64.0 °F52.0 °F55 %29.88 in2.0 miEast (90°)4.6 mphPartly Cloudy
3:10 AM64.4 °F48.2 °F56 %29.86 in2.5 miENE (70°)3.5 mphHaze
3:40 AM62.6 °F50.0 °F63 %29.86 in2.5 miNorth (10°)4.6 mphHaze
4:40 AM59.0 °F48.2 °F67 %29.89 in2.5 miNE (50°)3.5 mphHaze
5:10 AM60.8 °F48.2 °F63 %29.89 in2.5 miNE (40°)4.6 mphHaze
5:30 AM63.0 °F51.0 °F56 %29.90 in2.0 miEast (90°)4.6 mphScattered Clouds
5:40 AM60.8 °F48.2 °F63 %29.89 in2.5 miNE (40°)4.6 mphHaze
6:10 AM60.8 °F48.2 °F63 %29.89 in2.5 miENE (60°)6.9 mphHaze
6:40 AM60.8 °F48.2 °F63 %29.92 in2.2 miNE (50°)6.9 mphHaze
7:40 AM60.8 °F48.2 °F63 %29.95 in1.9 miNE (50°)5.8 mphHaze
8:10 AM62.6 °F48.2 °F59 %29.95 in1.9 miENE (60°)5.8 mphHaze
8:30 AM64.0 °F51.0 °F53 %29.96 in1.0 miNNE (20°)3.5 mphHaze
8:40 AM66.2 °F48.2 °F52 %29.95 in1.9 miENE (70°)6.9 mphSmoke
9:10 AM68.0 °F48.2 °F49 %29.95 in2.5 miEast (80°)5.8 mphSmoke
10:10 AM73.4 °F48.2 °F41 %29.98 in3.1 miENE (70°)8.1 mphSmoke
10:40 AM75.2 °F48.2 °F38 %29.98 in3.7 miENE (70°)6.9 mph
11:10 AM77.0 °F50.0 °F39 %29.95 in3.7 miENE (70°)6.9 mph
11:30 AM77.0 °F49.0 °F27 %29.98 in2.0 miEast (90°)3.5 mphScattered Clouds
11:40 AM80.6 °F50.0 °F34 %29.95 in3.7 miEast (80°)5.8 mph
12:10 PM80.6 °F51.8 °F37 %29.92 in3.7 miEast (80°)5.8 mph
12:40 PM82.4 °F51.8 °F35 %29.92 in3.7 miENE (70°)5.8 mph
1:10 PM84.2 °F51.8 °F33 %29.89 in3.7 miENE (70°)4.6 mph
1:40 PM86.0 °F51.8 °F31 %29.89 in3.7 miENE (60°)8.1 mph
2:10 PM86.0 °F51.8 °F31 %29.86 in3.7 miEast (80°)5.8 mph
2:30 PM84.0 °F50.0 °F20 %29.90 in2.0 miEast (90°)4.6 mph
3:10 PM86.0 °F50.0 °F29 %29.83 in3.7 miENE (70°)5.8 mph
3:40 PM86.0 °F50.0 °F29 %29.83 in3.7 miNE (50°)9.2 mph
4:10 PM86.0 °F50.0 °F29 %29.83 in3.7 miENE (60°)6.9 mph
4:40 PM86.0 °F48.2 °F27 %29.83 in3.7 miNNE (30°)6.9 mph
5:10 PM86.0 °F48.2 °F27 %29.83 in3.7 miNE (50°)5.8 mph
5:30 PM84.0 °F49.0 °F19 %29.86 in2.0 miNNW (340°)3.5 mph
5:40 PM84.2 °F46.4 °F27 %29.83 in3.7 miNNE (30°)5.8 mph
6:40 PM80.6 °F48.2 °F32 %29.86 in2.5 miNNE (30°)4.6 mphSmoke
7:10 PM77.0 °F50.0 °F39 %29.86 in2.5 miNNE (30°)4.6 mphSmoke
7:40 PM77.0 °F48.2 °F36 %29.86 in2.5 miNNE (30°)3.5 mphSmoke
8:10 PM77.0 °F48.2 °F36 %29.86 in2.5 miNNE (30°)3.5 mphSmoke
8:30 PM69.0 °F54.0 °F49 %29.91 in2.0 miCalmHaze
8:40 PM71.6 °F51.8 °F50 %29.89 in2.5 miVariable2.3 mphSmoke
9:10 PM71.6 °F50.0 °F46 %29.92 in2.5 miVariable3.5 mphSmoke
9:40 PM73.4 °F50.0 °F44 %29.92 in2.5 miNNE (20°)3.5 mphSmoke
10:10 PM71.6 °F50.0 °F46 %29.92 in2.5 miNE (40°)3.5 mphSmoke
10:40 PM68.0 °F53.6 °F60 %29.92 in2.5 miNNE (30°)3.5 mphSmoke
11:10 PM66.2 °F50.0 °F56 %29.92 in2.5 miENE (60°)2.3 mphSmoke
11:30 PM67.0 °F54.0 °F54 %29.94 in2.0 miCalmHaze
11:40 PM66.2 °F50.0 °F56 %29.92 in2.5 miEast (80°)3.5 mphSmoke
Hourly data recorded from VAAH, located miles away from Ahmedabad, India







STORIES FROM OUR PARTNERS